Bookmark and Share
Track history (hours):
 

CMA CGM Herodote

Last reported at 2014-Apr-24 01:32 UTC. Time now 2014-Apr-25 06:00 UTC.
Position N 49°55' W 001°35'.

Length 170 m; draft 8.8 m.

Type: Ship (hazmat cat A). MMSI: 235051085.

NotesDate/timePositionNaut miles runAvg speedWind from/ knotsBaromVisibWave heightAir tempDewpointWater temp
2014-Apr-24 01:32N 49°55' W 001°35'3013.0
2014-Apr-23 23:14N 49°44' W 000°52'1320.1
2014-Apr-23 22:33N 49°39' W 000°33'1918.7
2014-Apr-23 21:33N 49°31' W 000°06'1110.9
2014-Apr-23 20:33N 49°28' E 000°10'0 0.1
2014-Apr-23 19:32N 49°29' E 000°10'0 0.0
2014-Apr-23 18:29N 49°29' E 000°10'0 0.0
2014-Apr-23 17:32N 49°29' E 000°10'0 0.0
2014-Apr-23 16:32N 49°29' E 000°10'0 0.0
2014-Apr-23 15:32N 49°29' E 000°10'0 0.0
2014-Apr-23 14:32N 49°29' E 000°10'0 0.0
2014-Apr-23 13:32N 49°29' E 000°10'0 0.0
2014-Apr-23 12:32N 49°29' E 000°10'0 0.0
2014-Apr-23 11:32N 49°29' E 000°10'0 0.0
2014-Apr-23 10:32N 49°29' E 000°10'0 0.0
2014-Apr-23 09:32N 49°29' E 000°10'0 0.0
2014-Apr-23 08:32N 49°29' E 000°10'0 0.0
2014-Apr-23 07:32N 49°29' E 000°10'0 0.0
2014-Apr-23 06:32N 49°29' E 000°10'0 0.0
2014-Apr-23 05:32N 49°29' E 000°10'0 0.0
2014-Apr-23 04:32N 49°29' E 000°10'0 0.0
2014-Apr-23 03:32N 49°29' E 000°10'0 0.0
2014-Apr-23 02:32N 49°29' E 000°10'0 0.0
2014-Apr-23 01:32N 49°29' E 000°10'0 0.0
2014-Apr-23 00:32N 49°29' E 000°10'0 0.0
2014-Apr-22 23:32N 49°29' E 000°10'0 0.0
2014-Apr-22 22:32N 49°29' E 000°10'0 0.0
2014-Apr-22 21:32N 49°29' E 000°10'0 0.0
2014-Apr-22 20:32N 49°29' E 000°10'0 0.0
2014-Apr-22 19:32N 49°29' E 000°10'0 0.0
2014-Apr-22 18:32N 49°29' E 000°10'0 0.0
2014-Apr-22 17:32N 49°29' E 000°10'0 0.0
2014-Apr-22 16:32N 49°29' E 000°10'0 0.0
2014-Apr-22 15:32N 49°29' E 000°10'0 0.0
2014-Apr-22 14:32N 49°29' E 000°10'0 0.0
2014-Apr-22 13:32N 49°29' E 000°10'0 0.0
2014-Apr-22 12:32N 49°29' E 000°10'0 0.0
2014-Apr-22 11:32N 49°29' E 000°10'0 0.0
2014-Apr-22 10:29N 49°29' E 000°10'0 0.0
2014-Apr-22 09:32N 49°29' E 000°10'0 0.0
2014-Apr-22 08:32N 49°29' E 000°10'0 0.0
2014-Apr-22 07:32N 49°29' E 000°10'0 0.0
2014-Apr-22 06:32N 49°29' E 000°10'0 0.0
2014-Apr-22 05:32N 49°29' E 000°10'0 0.0
2014-Apr-22 04:32N 49°29' E 000°10'0 0.0
2014-Apr-22 03:32N 49°29' E 000°10'1 0.6
2014-Apr-22 02:33N 49°28' E 000°09'5 5.5
2014-Apr-22 01:33N 49°27' E 000°01'1211.6
2014-Apr-22 00:33N 49°26' E 000°19'9 8.9
2014-Apr-21 23:33N 49°28' E 000°32'5 0.2
2014-Apr-21 00:30N 49°28' E 000°40'9 9.5
2014-Apr-20 23:33N 49°28' E 000°26'1514.7
2014-Apr-20 22:34N 49°27' E 000°04'9 8.5
2014-Apr-20 21:33N 49°28' W 000°09'0 0.1
2014-Apr-20 20:31N 49°29' W 000°09'0 0.0
2014-Apr-20 19:28N 49°29' W 000°09'0 0.0
2014-Apr-20 18:31N 49°29' W 000°09'0 0.0
2014-Apr-20 17:31N 49°29' W 000°09'0 0.1
2014-Apr-20 16:33N 49°29' W 000°09'9 9.2
2014-Apr-20 15:33N 49°38' W 000°13'5710.6
2014-Apr-20 10:13N 50°31' E 000°17'913.1
2014-Apr-20 09:33N 50°34' E 000°30'1414.2
2014-Apr-20 08:33N 50°42' E 000°48'1514.7
2014-Apr-20 07:33N 50°52' E 001°05'1813.9
2014-Apr-20 06:16N 51°04' E 001°27'812.0
2014-Apr-20 05:33N 51°10' E 001°36'1110.9
2014-Apr-20 04:33N 51°21' E 001°35'1110.9
2014-Apr-20 03:33N 51°28' E 001°22'1211.6
2014-Apr-20 02:33N 51°30' E 001°03'1313.4
2014-Apr-20 01:34N 51°30' E 000°42'1110.6
2014-Apr-20 00:33N 51°27' E 000°26'4 3.6
2014-Apr-19 23:33N 51°27' E 000°20'0 0.0
2014-Apr-19 22:33N 51°27' E 000°20'0 0.0
2014-Apr-19 21:33N 51°27' E 000°20'0 0.0
2014-Apr-19 20:33N 51°27' E 000°20'0 0.0
2014-Apr-19 19:33N 51°27' E 000°20'0 0.0
2014-Apr-19 18:33N 51°27' E 000°20'0 0.0
2014-Apr-19 17:33N 51°27' E 000°20'0 0.0
2014-Apr-19 16:33N 51°27' E 000°20'0 0.0
2014-Apr-19 15:33N 51°27' E 000°20'0 0.0
2014-Apr-19 14:33N 51°27' E 000°20'0 0.0
2014-Apr-19 13:33N 51°27' E 000°20'0 0.0
2014-Apr-19 12:34N 51°27' E 000°20'5 5.3
2014-Apr-19 11:33N 51°29' E 000°28'1615.8
2014-Apr-19 10:33N 51°29' E 000°53'1716.8
2014-Apr-19 09:33N 51°36' E 001°18'1110.7
2014-Apr-19 08:33N 51°29' E 001°32'2 1.7
2014-Apr-19 07:33N 51°28' E 001°33'9 8.6
2014-Apr-19 06:34N 51°33' E 001°43'9 9.3
2014-Apr-19 05:33N 51°38' E 001°56'10 9.7
2014-Apr-19 04:33N 51°45' E 002°08'10 9.5
2014-Apr-19 03:33N 51°51' E 002°19'5711.3
2014-Apr-18 22:33N 52°03' E 003°49'1211.6
2014-Apr-18 21:33N 51°59' E 004°07'1111.1
2014-Apr-18 20:33N 51°54' E 004°23'1 1.1
2014-Apr-18 19:32N 51°53' E 004°24'0 0.0
2014-Apr-18 18:29N 51°53' E 004°24'0 0.0
2014-Apr-18 17:32N 51°53' E 004°24'0 0.0
2014-Apr-18 16:32N 51°53' E 004°24'0 0.0
2014-Apr-18 15:29N 51°53' E 004°24'0 0.0
2014-Apr-18 14:32N 51°53' E 004°24'0 0.0
2014-Apr-18 13:32N 51°53' E 004°24'0 0.0
2014-Apr-18 12:32N 51°53' E 004°24'0 0.0
2014-Apr-18 11:28N 51°53' E 004°24'0 0.0
2014-Apr-18 10:32N 51°53' E 004°24'0 0.0
2014-Apr-18 09:29N 51°53' E 004°24'0 0.0
2014-Apr-18 08:29N 51°53' E 004°24'0 0.0
2014-Apr-18 07:32N 51°53' E 004°24'0 0.0
2014-Apr-18 06:32N 51°53' E 004°24'0 0.0
2014-Apr-18 05:32N 51°53' E 004°24'0 0.0
2014-Apr-18 04:32N 51°53' E 004°24'0 0.0
2014-Apr-18 03:32N 51°53' E 004°24'0 0.0
2014-Apr-18 02:32N 51°53' E 004°24'0 0.0
2014-Apr-18 01:28N 51°53' E 004°24'1 0.6
2014-Apr-18 00:33N 51°53' E 004°24'6 5.8
2014-Apr-17 23:33N 51°55' E 004°15'1110.9
2014-Apr-17 22:33N 51°60' E 004°00'1312.8
2014-Apr-17 21:33N 51°57' E 003°40'4614.7
2014-Apr-17 18:24N 51°40' E 002°30'1315.4
2014-Apr-17 17:33N 51°30' E 002°17'1616.2
2014-Apr-17 16:33N 51°15' E 002°06'1717.0
2014-Apr-17 15:33N 51°05' E 001°44'1918.6
2014-Apr-17 14:33N 50°50' E 001°26'1918.7
2014-Apr-17 13:33N 50°35' E 001°08'1817.7
2014-Apr-17 12:33N 50°28' E 000°43'1918.5
2014-Apr-17 11:32N 50°23' E 000°14'1919.6
2014-Apr-17 10:33N 50°18' W 000°15'2120.6
2014-Apr-17 09:33N 50°12' W 000°45'2121.0
2014-Apr-17 08:33N 50°07' W 001°17'2120.9
2014-Apr-17 07:33N 50°02' W 001°49'2019.7
2014-Apr-17 06:33N 49°57' W 002°19'1918.7
2014-Apr-17 05:33N 49°51' W 002°46'2018.9
2014-Apr-17 04:29N 49°41' W 003°13'1918.8
2014-Apr-17 03:29N 49°31' W 003°38'75816.9
2014-Apr-15 06:33N 37°37' W 009°32'1818.1
2014-Apr-15 05:33N 37°20' W 009°27'7017.5
2014-Apr-15 01:33N 36°32' W 008°24'13619.3
2014-Apr-14 18:31N 35°58' W 005°40'1414.9
2014-Apr-14 17:34N 36°04' W 005°24'4 1.8
2014-Apr-14 15:31N 36°08' W 005°25'0 0.0
2014-Apr-14 14:31N 36°08' W 005°25'0 0.0
2014-Apr-14 13:31N 36°08' W 005°25'0 0.0
2014-Apr-14 11:31N 36°08' W 005°25'1 0.9
2014-Apr-14 10:34N 36°08' W 005°25'4 3.8
2014-Apr-14 09:34N 36°05' W 005°22'2 1.9
2014-Apr-14 08:34N 36°05' W 005°19'2 1.9
2014-Apr-14 07:34N 36°04' W 005°21'1010.4
2014-Apr-14 06:34N 35°57' W 005°31'  

Dump ship's entire track history

sailing weather and tide predictions

CMA CGM Herodote — MFEP — position and weather